Wind_Speed
112 112 112 112 112 112 112 112 112 113 113 114 115 115 115 115 114 114 114 113 113 113 113 113 113 113 113 114 115 117 118 120 121 123 125 126 128 130 131 133 135 136 137 137 138 138 138 138 138 137 137 137 137 137 137 136 136 135 134 132 129 126 122 116 110 103 97 91 85 81 77 73 69 65 62 58 54 50 46 43 40 38 36 34 33 31
110 110 110 110 110 111 111 112 113 113 114 115 116 116 116 115 115 114 114 114 114 113 113 114 114 115 116 117 118 120 122 123 125 127 129 130 132 133 135 136 137 137 138 138 138 138 138 138 137 137 137 137 137 137 137 136 135 134 132 129 126 122 117 111 105 98 92 87 82 77 74 70 66 63 59 55 51 48 44 41 39 37 35 33 32 30
109 109 110 110 111 111 112 114 115 115 116 116 116 116 116 115 115 115 115 115 115 115 115 116 117 118 119 121 123 124 126 128 129 131 132 134 135 136 137 138 138 138 138 139 138 138 138 137 137 137 137 137 137 137 136 135 134 132 129 126 122 117 111 105 99 93 88 83 78 74 71 67 63 60 56 52 49 46 43 40 37 36 34 32 31 30
110 110 111 112 113 114 115 115 116 116 116 116 116 116 115 115 115 116 116 117 117 118 119 120 121 123 124 126 127 129 130 131 133 134 135 136 137 138 138 138 139 139 139 138 138 138 137 137 137 137 138 138 137 137 135 134 131 129 125 121 116 111 105 99 94 89 84 79 75 71 68 64 60 57 53 50 47 44 41 38 36 35 33 32 30 29
112 112 112 113 114 116 116 116 116 116 116 116 115 116 116 116 117 118 119 120 122 123 125 126 127 128 129 130 131 131 132 134 135 136 137 138 138 139 139 139 139 139 138 138 138 138 138 138 138 138 138 138 137 135 133 131 128 125 120 116 110 105 99 94 89 84 80 76 72 68 65 61 57 54 51 47 44 42 39 37 35 33 32 31 30 29
113 113 113 113 114 115 115 116 116 116 116 116 117 117 118 120 121 123 124 126 127 128 129 130 131 131 131 132 132 133 134 136 137 138 139 139 140 140 139 139 138 138 138 138 138 138 138 138 138 138 138 137 135 133 130 127 124 119 115 110 104 99 94 89 84 80 76 72 69 65 62 58 55 51 48 45 43 40 38 36 34 33 31 30 29 28
114 114 114 114 115 115 116 116 116 117 117 118 119 120 122 123 125 126 127 129 129 130 131 131 131 132 132 133 134 136 137 138 140 140 141 140 140 139 139 138 138 138 138 138 138 138 139 139 138 138 136 134 132 129 126 122 118 114 109 103 98 93 89 84 80 76 73 69 65 62 59 55 52 49 46 43 41 38 36 34 33 32 31 30 29 28
116 116 116 116 117 117 118 118 119 120 120 121 123 124 125 126 128 129 130 130 131 132 132 133 134 134 135 136 137 139 140 141 141 141 141 140 139 139 138 138 138 138 139 139 139 139 138 138 137 135 133 130 127 124 120 116 112 107 102 97 92 88 84 80 76 73 69 66 62 59 56 52 49 47 44 42 39 37 35 33 32 31 30 29 29 28
118 119 119 119 120 121 121 122 123 124 125 126 127 128 129 130 131 132 133 133 134 134 135 136 136 137 138 139 140 141 141 141 141 140 139 139 139 138 139 139 139 139 139 139 139 138 137 136 134 132 129 125 122 118 114 110 106 101 96 91 87 83 80 76 73 69 66 62 59 56 53 50 47 44 42 40 38 36 34 33 32 31 30 29 29 28
122 122 123 123 124 124 125 126 127 128 129 130 131 131 132 133 134 134 135 135 136 136 137 138 139 140 140 141 141 141 140 140 140 139 139 139 139 139 139 139 139 139 139 138 137 136 134 132 129 126 123 119 116 112 108 104 99 95 90 86 83 79 76 72 69 66 63 59 56 53 50 47 45 43 40 38 37 35 33 32 31 30 29 29 28 28
125 125 126 127 127 128 129 130 130 131 132 132 133 134 134 135 135 135 136 137 137 138 139 140 140 140 141 140 140 140 140 139 140 140 140 140 140 140 140 139 139 138 137 136 134 132 129 127 123 120 116 113 109 106 102 98 94 89 85 82 78 75 72 69 66 63 60 56 53 50 48 45 43 41 39 37 35 34 32 31 30 29 29 28 28 28
128 129 129 130 130 131 132 133 133 134 134 135 136 137 137 137 137 137 138 138 139 139 140 140 140 140 140 139 139 140 140 140 140 140 140 140 140 139 139 138 137 136 134 132 129 126 123 120 116 113 110 106 103 99 96 92 88 84 81 78 74 71 68 65 62 60 57 54 51 48 46 43 41 39 37 36 34 33 32 30 30 29 28 28 28 28
131 132 132 133 134 135 135 136 137 137 138 138 139 139 139 139 139 138 138 139 139 139 139 140 140 140 140 140 140 140 140 140 140 140 140 139 138 137 136 134 133 131 129 126 123 119 116 113 109 106 103 100 97 93 90 87 83 80 77 74 71 68 65 62 59 57 54 51 48 46 44 41 39 38 36 34 33 32 31 30 29 28 28 28 28 28
137 137 137 138 138 139 140 140 140 141 141 141 140 140 140 140 139 139 139 139 140 140 140 140 140 140 141 141 141 140 140 139 139 139 138 136 135 133 131 129 127 125 122 118 115 112 109 105 103 100 97 94 91 88 85 82 79 76 73 70 67 64 61 59 56 54 51 49 46 44 42 40 38 36 35 33 32 31 30 29 28 28 28 28 28 29
143 143 143 143 144 144 144 144 144 143 143 143 142 142 141 141 141 141 141 141 141 142 141 141 141 141 141 140 140 139 138 137 136 135 133 132 130 128 125 122 120 117 114 111 108 105 102 99 96 94 91 88 86 83 81 78 75 72 69 66 64 61 58 56 53 51 49 46 44 42 40 38 36 35 33 32 31 30 29 29 28 28 28 28 29 29
147 147 147 147 147 147 147 146 146 146 146 145 145 144 143 143 143 143 142 142 142 142 141 140 139 139 139 138 138 136 134 132 131 129 127 125 122 120 117 114 112 110 107 104 101 98 96 93 91 88 86 84 81 79 76 74 71 68 66 63 60 58 55 53 51 48 46 44 42 40 38 37 35 34 32 31 30 30 29 28 28 28 28 28 29 29
149 149 149 149 149 149 149 148 148 147 147 146 145 145 144 143 143 142 142 141 140 139 138 137 136 134 133 133 133 131 129 126 123 121 119 117 114 111 109 107 105 103 100 98 95 93 91 88 86 84 82 79 77 75 72 70 67 65 62 60 57 55 52 50 48 46 44 42 40 39 37 35 34 32 31 30 30 29 29 28 28 28 29 29 29 29
148 148 148 148 148 148 147 147 146 146 145 144 143 143 142 141 140 139 138 137 136 134 133 132 130 128 127 125 124 123 121 117 115 113 111 109 106 104 102 100 98 97 95 92 90 88 86 84 82 80 78 76 73 71 68 66 64 61 59 57 54 52 50 48 46 44 42 41 39 37 35 34 33 31 31 30 29 29 28 28 28 29 29 29 29 29
141 142 142 142 142 142 142 141 141 140 139 139 138 137 135 134 133 132 131 129 128 127 125 124 122 121 119 117 115 114 111 109 107 105 103 102 100 98 96 95 93 92 90 88 86 84 82 80 78 76 74 72 70 67 65 62 60 58 56 54 52 49 48 46 44 42 41 39 37 36 34 33 32 31 30 29 29 28 28 28 28 28 29 29 29 29
131 132 132 132 132 132 132 132 131 131 130 129 128 127 126 125 124 123 121 120 119 118 116 115 113 112 110 109 107 105 103 102 100 99 98 97 95 93 92 90 89 87 86 84 82 80 78 76 75 73 71 68 66 64 61 59 57 55 53 51 49 47 45 44 42 41 39 37 36 34 33 32 30 29 29 28 28 28 28 28 28 28 28 28 29 29
121 121 121 121 121 121 121 121 121 120 120 119 118 117 116 115 114 113 113 112 111 109 108 107 106 105 104 102 101 100 98 97 96 95 94 92 91 90 88 86 85 84 82 80 78 76 75 73 71 69 67 65 62 60 58 56 54 52 50 49 47 45 43 42 40 39 37 36 34 33 31 30 29 29 28 28 27 27 27 27 27 27 27 27 28 28
113 113 112 112 112 112 112 112 112 112 111 111 110 109 109 108 107 107 106 105 104 104 103 102 101 100 99 98 97 96 94 93 92 91 90 89 88 86 84 83 81 80 79 77 75 73 72 70 68 66 64 61 59 57 55 53 51 50 48 46 45 43 42 40 39 37 35 34 33 31 30 29 28 28 27 27 27 27 27 27 26 26 26 27 27 28
108 108 108 107 107 107 107 107 107 107 106 106 105 105 104 103 103 102 102 101 101 100 99 98 97 96 95 95 94 92 91 90 89 88 87 86 85 83 81 80 78 77 76 74 72 70 68 67 65 62 60 58 56 55 53 51 49 47 46 44 43 41 40 38 37 35 34 32 31 30 29 28 27 27 26 26 26 26 26 26 26 26 26 26 27 28
106 106 105 105 105 104 104 104 104 104 103 103 102 102 101 101 100 100 99 98 98 97 96 96 95 94 93 92 91 89 88 87 86 85 84 84 82 81 79 77 76 74 73 71 69 67 65 64 61 59 57 55 54 52 50 48 46 45 44 42 41 40 38 37 35 34 32 31 30 29 28 27 26 26 25 25 25 25 25 25 25 26 26 27 27 28
105 104 104 103 103 103 103 102 102 102 101 101 100 100 99 98 98 97 97 96 96 95 94 93 93 92 91 90 88 87 86 84 83 82 82 81 80 78 76 74 73 71 70 68 66 64 62 60 58 56 54 53 51 49 48 46 45 43 42 41 39 38 37 35 33 32 30 29 28 27 26 26 25 25 24 24 24 24 24 24 25 25 26 26 27 28
104 103 103 102 102 101 101 101 100 100 99 99 98 98 97 97 96 95 95 94 94 93 92 91 91 90 89 87 86 85 83 82 81 80 79 78 77 75 73 72 70 69 67 65 63 61 59 57 55 53 52 50 49 47 45 44 43 42 40 39 38 36 35 33 32 30 29 28 27 26 25 24 24 24 23 23 23 23 24 24 24 25 25 26 26 27
103 103 102 101 101 100 100 99 99 98 98 97 97 96 95 95 94 94 93 93 92 91 90 89 89 88 86 85 84 83 81 80 79 78 77 75 74 73 71 69 67 66 64 63 60 58 56 54 52 51 49 48 46 45 43 42 41 40 39 38 36 35 33 31 30 28 27 26 25 25 24 24 23 23 23 23 23 23 23 23 24 24 25 25 25 26
103 102 101 101 100 99 99 98 97 97 96 96 95 94 94 93 93 92 92 91 90 89 88 87 86 85 84 83 82 81 79 78 77 76 74 73 71 70 68 66 65 63 61 60 58 55 53 51 50 48 47 45 44 43 41 40 39 38 37 36 34 33 31 30 28 27 26 25 24 24 24 23 23 23 23 23 23 23 23 23 24 24 24 25 25 26
103 102 101 100 99 98 98 97 96 96 95 94 94 93 92 92 91 91 90 89 88 87 86 85 84 83 82 81 80 79 78 76 75 73 71 70 69 67 66 64 62 60 59 57 55 53 51 49 48 46 45 43 42 41 40 39 38 37 35 34 33 31 30 28 27 26 25 25 24 24 23 23 23 23 23 23 23 23 24 24 24 24 25 25 26 26
103 101 100 99 98 97 96 96 95 94 94 93 92 91 91 90 89 89 88 87 86 85 84 83 82 81 80 79 78 77 76 74 72 70 68 67 66 65 63 61 60 58 56 54 52 50 49 47 45 44 43 41 40 39 38 37 36 35 34 32 31 30 29 27 26 26 25 24 24 24 23 23 23 23 23 24 24 24 24 25 25 26 26 26 27 27
102 101 100 98 97 96 95 94 94 93 92 92 91 90 89 88 88 87 86 85 84 83 82 81 80 78 77 77 76 75 74 72 69 67 66 65 64 62 60 59 57 55 53 51 49 48 46 45 43 42 41 39 38 37 37 36 35 33 32 31 30 29 28 27 26 25 25 25 24 24 24 24 24 24 24 24 25 25 26 26 26 27 27 28 28 29
101 99 98 97 96 95 94 93 92 92 91 90 89 88 88 87 86 85 84 83 81 80 79 78 77 76 76 75 74 73 72 69 67 65 63 62 61 60 58 56 54 52 51 49 47 45 44 43 42 40 39 38 37 36 35 34 33 32 31 30 29 28 27 27 26 26 25 25 25 25 24 24 25 25 25 25 26 26 26 27 28 28 28 29 29 30
99 98 97 95 94 93 92 91 91 90 89 89 88 87 86 85 85 83 82 81 79 78 77 76 75 75 74 73 72 70 69 67 65 63 61 60 58 57 55 53 52 50 48 46 45 43 42 41 40 39 38 37 36 35 34 33 32 31 30 29 28 28 27 27 26 26 26 25 25 25 25 25 25 25 26 26 26 27 27 28 28 29 29 30 30 31
97 96 95 93 92 91 91 90 89 89 88 87 86 85 85 84 83 81 80 78 77 76 75 74 73 72 72 71 70 68 66 64 62 60 59 57 56 54 52 51 49 48 46 44 43 41 40 39 38 37 36 35 34 33 32 32 31 30 29 29 28 28 27 27 27 27 26 26 26 26 26 26 26 26 26 27 27 27 28 28 29 29 30 30 31 31
95 94 92 91 90 89 89 88 88 87 86 85 84 84 83 82 81 79 77 76 75 74 73 72 71 70 69 68 67 65 63 61 60 58 56 55 53 52 50 49 47 45 44 42 41 40 39 38 37 36 35 34 33 32 31 30 30 29 29 28 28 28 28 27 27 27 27 27 26 26 26 26 26 26 27 27 27 28 28 29 29 30 30 31 31 32
92 91 90 89 88 88 87 87 86 85 84 83 83 82 81 80 78 77 75 74 73 72 71 70 69 68 67 66 64 62 61 59 57 55 54 52 50 49 48 46 45 43 42 40 39 38 37 36 35 35 34 32 32 31 30 29 29 28 28 28 28 27 27 27 27 27 27 27 27 27 27 26 26 26 27 27 27 28 28 29 29 30 30 31 31 32
90 89 88 87 86 86 85 84 84 83 82 82 81 81 80 78 76 74 73 72 71 70 69 68 67 66 65 63 61 59 58 56 55 53 51 50 48 46 45 44 43 41 40 38 37 37 36 35 34 33 32 31 30 29 29 28 28 28 28 27 27 27 27 27 27 27 27 27 27 27 27 27 27 27 27 27 28 28 28 29 29 30 30 30 31 31
87 86 85 85 84 83 83 82 82 81 81 80 80 79 77 75 73 72 71 69 68 67 67 66 65 64 62 60 58 57 55 54 52 51 49 47 46 44 43 42 41 39 38 37 36 35 34 34 33 32 31 30 29 28 28 28 27 27 27 27 26 26 26 26 26 26 27 27 27 27 27 27 27 27 28 28 28 28 29 29 29 30 30 30 31 31
85 84 83 82 82 81 81 80 80 79 79 78 78 76 74 72 70 69 68 67 66 65 65 64 63 61 60 57 56 54 53 52 50 48 47 45 43 42 41 40 39 38 37 35 34 34 33 32 32 31 30 29 28 28 27 27 27 27 26 26 26 26 25 25 25 26 26 26 27 27 27 27 27 28 28 28 28 29 29 30 30 30 30 31 31 32
82 81 81 80 79 79 78 78 77 77 77 76 75 73 71 69 68 67 66 65 64 63 63 62 61 59 57 55 53 52 50 49 48 46 44 43 42 40 39 38 37 36 35 34 33 32 32 31 30 30 29 28 27 26 26 26 26 26 25 25 25 25 25 25 25 25 25 26 26 27 27 27 27 28 28 28 29 29 30 30 30 30 31 31 32 33
80 79 78 77 77 76 76 75 75 75 74 74 72 70 68 66 65 64 64 63 62 61 61 60 58 56 54 52 51 49 48 47 46 44 42 41 40 39 38 37 36 35 34 33 32 31 30 30 29 28 28 27 26 25 25 25 25 25 25 24 24 24 24 24 24 25 25 25 26 26 27 27 27 28 28 29 29 30 30 30 31 31 32 32 33 33
77 76 75 75 74 74 73 73 73 72 72 71 69 67 65 64 63 62 61 60 60 59 58 57 56 54 52 50 48 47 46 45 43 42 40 39 38 37 36 35 35 34 33 32 31 30 29 29 28 27 27 26 25 24 24 24 24 24 24 24 24 24 24 24 24 25 25 25 25 26 26 27 28 28 29 29 30 30 30 31 31 32 32 33 33 34
74 73 73 72 72 71 71 70 70 70 69 68 66 64 62 61 60 59 59 58 58 57 56 55 53 51 49 48 46 45 44 43 41 40 39 37 36 36 35 34 33 33 32 31 30 29 29 28 27 27 26 25 25 24 23 23 23 23 23 24 23 23 24 24 24 25 25 25 26 26 27 27 28 29 29 30 30 31 31 31 32 32 33 34 34 35
71 71 70 70 69 69 68 68 68 67 66 64 62 60 59 58 58 57 56 56 56 55 54 52 51 49 47 45 44 43 42 41 39 38 37 36 35 34 34 33 32 32 31 30 29 29 28 27 27 26 25 25 24 24 23 23 23 23 23 24 24 24 24 24 25 25 25 26 26 27 27 28 29 29 30 30 31 31 32 32 33 33 34 34 35 35
68 68 68 67 67 66 66 66 65 65 63 61 59 57 57 56 55 55 54 54 53 53 52 50 48 46 45 43 42 41 40 39 38 37 36 35 34 33 33 32 31 31 30 30 29 28 27 27 26 25 25 25 24 24 24 23 23 23 24 24 24 25 25 25 25 26 26 26 27 27 28 28 29 30 30 31 31 32 32 33 33 34 35 35 36 36
66 66 65 65 64 64 63 63 63 61 59 57 56 55 54 54 53 53 52 52 51 51 49 48 46 44 43 41 40 39 38 37 36 35 34 34 33 33 32 31 31 30 29 29 28 28 27 26 25 25 24 24 24 24 24 24 24 24 24 24 25 25 26 26 26 26 27 27 28 28 29 29 30 31 31 32 32 33 33 34 34 35 35 36 36 37
64 63 63 62 62 61 61 61 59 57 55 54 53 53 52 52 51 51 50 50 49 49 47 46 44 42 40 39 38 37 37 36 35 34 34 33 32 32 31 31 30 30 29 29 28 27 27 26 25 25 25 25 25 25 25 25 25 25 25 25 26 26 26 27 27 27 27 28 28 29 29 30 31 31 32 32 33 33 34 35 35 36 36 36 37 37
61 61 60 60 59 59 58 57 56 54 52 51 51 50 50 50 49 49 49 48 48 47 45 43 41 40 38 37 37 36 35 35 34 33 33 32 32 31 31 30 30 29 29 28 28 27 27 26 26 25 25 25 26 26 26 26 26 26 26 26 26 27 27 27 27 28 28 28 29 29 30 30 31 32 32 33 34 34 35 35 36 36 36 37 37 38
59 58 58 57 57 56 56 54 52 51 49 49 49 48 48 48 48 48 47 47 46 45 43 41 39 38 37 36 36 35 34 34 33 33 32 32 31 31 30 30 29 29 29 28 28 27 27 26 26 26 26 26 26 27 27 26 26 26 27 27 27 27 28 28 28 28 28 29 29 30 30 31 32 32 33 34 34 35 35 36 36 37 37 37 38 38
56 56 55 55 54 54 52 51 49 48 47 47 47 46 46 46 47 46 46 45 44 43 41 39 37 36 36 35 35 34 34 33 33 32 32 31 31 31 30 30 29 29 28 28 28 27 27 27 27 27 27 27 27 27 27 27 27 27 27 27 28 28 28 28 28 28 29 29 30 31 31 32 32 33 33 34 35 35 36 36 37 37 38 38 39 39
54 54 53 53 52 51 49 47 46 46 45 45 45 45 45 45 46 46 45 44 42 40 38 37 36 35 35 35 34 34 33 32 32 32 31 31 31 30 30 30 29 29 28 28 28 28 28 27 27 27 27 27 27 27 27 27 27 27 28 28 28 28 28 29 29 29 29 30 31 31 32 33 33 34 34 35 35 36 36 37 38 38 38 39 40 40
Wind_Direction
287 288 289 289 290 290 290 291 291 291 291 292 293 294 294 295 296 296 296 296 297 297 297 297 298 298 297 297 297 297 297 297 298 298 298 299 300 300 301 301 301 302 302 303 303 304 304 305 305 306 306 307 308 308 309 309 310 310 311 311 312 312 313 313 313 312 312 311 310 309 309 308 306 305 304 303 301 300 298 295 292 289 286 282 279 276
286 286 287 287 287 288 288 288 289 289 290 291 292 292 293 294 294 294 295 295 295 296 296 296 296 296 295 295 295 296 296 296 297 297 298 299 299 299 300 300 301 301 302 302 302 303 304 304 305 306 306 307 307 308 308 309 309 310 310 311 312 312 312 312 312 311 310 310 309 308 307 306 305 304 303 302 300 298 296 293 290 287 283 280 277 273
284 284 284 285 285 285 286 287 287 288 289 290 291 291 292 292 293 293 293 294 294 294 294 294 294 294 294 294 294 295 295 296 297 297 298 298 298 299 299 300 300 300 301 301 302 303 303 304 305 305 306 307 307 308 308 308 309 309 310 311 311 311 311 311 310 310 309 309 308 307 306 305 304 303 302 300 298 296 294 291 288 284 281 278 274 270
282 282 283 283 284 284 285 286 287 288 288 289 290 290 291 291 291 291 291 291 291 292 292 292 292 293 293 294 294 295 295 296 296 296 297 297 298 298 298 299 299 300 300 301 302 303 303 304 305 305 306 306 307 307 307 308 308 309 310 310 310 311 310 310 309 309 308 308 307 306 305 304 303 302 300 298 297 294 292 289 285 282 278 275 271 267
281 281 281 282 283 284 285 285 286 287 287 287 288 288 288 288 288 289 289 289 290 290 291 291 292 292 293 293 294 294 294 295 295 295 296 296 297 297 298 298 299 299 300 301 302 302 303 304 304 305 305 306 306 306 307 308 308 309 309 309 310 310 309 309 308 307 307 307 306 305 304 303 302 300 299 297 295 292 289 286 283 279 276 272 269 265
279 280 280 281 282 283 283 284 284 285 285 285 285 285 285 286 286 287 287 288 289 289 290 291 291 291 292 292 293 293 293 294 294 295 295 296 296 297 297 298 299 299 300 301 302 302 303 303 304 304 305 305 306 306 307 307 308 308 308 309 309 308 308 307 307 306 306 306 305 304 303 302 300 299 297 295 293 290 287 284 280 277 273 270 266 262
278 279 279 280 280 281 281 281 282 282 282 283 283 284 284 285 285 286 287 287 288 288 289 289 290 290 291 291 291 292 292 293 293 294 295 295 296 296 297 298 299 299 300 301 301 302 302 303 303 304 304 305 305 306 306 307 307 308 308 308 308 307 307 306 306 305 305 304 304 303 302 300 299 297 295 293 291 288 285 281 277 274 270 267 263 260
277 278 278 278 279 279 280 280 280 281 281 282 282 283 283 284 285 285 286 286 287 287 288 288 289 289 290 290 291 291 292 292 293 294 294 295 296 296 297 298 299 299 300 300 301 301 302 302 303 303 304 304 305 305 306 306 307 307 307 307 306 306 305 305 305 304 304 303 303 301 300 299 297 295 293 291 289 286 282 279 275 271 267 264 261 257
276 277 277 278 278 278 279 279 279 280 280 281 281 282 283 283 284 285 285 286 286 287 287 288 288 289 289 290 290 291 292 292 293 294 294 295 296 297 297 298 299 299 299 300 300 301 301 302 302 303 303 304 305 305 305 306 306 306 306 306 305 305 304 304 304 303 303 302 301 300 299 297 295 294 291 289 286 283 280 276 272 269 265 262 258 255
276 276 276 277 277 278 278 279 279 280 280 281 281 282 283 283 284 285 285 286 286 286 287 287 288 288 289 290 290 291 292 292 293 294 294 295 296 297 297 298 298 299 299 299 300 300 301 301 302 303 303 304 304 304 305 305 305 305 305 305 304 304 303 303 303 302 302 301 300 299 297 295 294 291 289 287 284 281 277 274 270 266 263 259 256 252
275 275 276 276 276 277 277 278 279 279 280 280 281 282 282 283 283 284 285 285 286 286 286 287 287 288 289 290 290 291 292 292 293 294 294 295 296 296 297 297 298 298 298 299 299 300 301 301 302 302 303 303 304 304 304 304 304 304 304 303 303 302 302 302 302 301 301 300 298 297 295 294 292 289 287 284 281 278 275 272 268 264 261 257 254 250
274 274 275 275 276 276 277 277 278 279 279 280 281 281 282 283 283 284 284 285 285 286 287 287 288 289 289 290 291 291 292 292 293 294 294 295 295 296 296 297 297 297 298 298 299 300 300 301 302 302 303 303 303 303 303 303 303 303 303 302 302 301 301 301 301 300 299 298 297 295 294 292 290 287 285 282 279 276 273 269 266 262 259 255 252 248
274 274 275 275 276 277 277 278 278 279 280 280 281 282 282 283 284 284 285 285 286 286 287 288 288 289 289 290 290 291 292 292 293 293 294 294 295 295 296 296 297 297 298 298 299 300 300 301 301 302 302 302 302 302 302 302 302 302 301 301 301 300 300 300 299 299 298 296 295 294 292 290 288 285 282 280 277 274 270 267 264 260 257 253 249 246
275 275 276 276 277 278 278 279 279 280 281 281 282 283 283 284 285 285 286 286 286 287 287 288 288 289 289 290 290 291 291 292 292 293 293 294 294 295 295 296 296 297 298 298 299 300 300 301 301 301 301 301 301 301 301 301 301 301 300 300 300 300 299 299 298 297 296 295 293 292 290 288 285 283 280 277 274 271 268 265 262 258 254 251 248 245
276 276 277 278 278 279 279 280 281 281 282 282 283 283 284 284 285 285 286 286 287 287 287 288 288 288 289 289 290 290 291 291 292 292 293 294 294 295 295 296 296 297 298 298 299 300 300 300 301 301 301 301 300 300 300 300 300 300 299 299 299 299 298 298 297 296 294 293 292 290 288 286 283 281 278 275 272 269 266 263 259 256 253 249 246 243
276 277 278 278 279 279 280 280 281 282 282 282 283 283 284 284 285 285 285 286 286 286 287 287 288 288 288 289 289 290 290 291 292 292 293 294 294 295 295 296 296 297 298 299 299 300 300 300 300 300 300 300 299 299 299 299 299 298 298 298 298 298 297 296 295 294 293 291 290 288 286 284 281 278 276 273 270 267 264 261 257 254 251 248 245 242
276 277 277 278 278 279 279 280 280 281 281 282 282 283 283 283 284 284 285 285 285 286 286 287 287 288 288 289 289 290 290 291 292 292 293 294 294 295 295 296 297 297 298 299 299 299 299 300 299 299 299 299 298 298 298 298 298 297 297 297 297 297 296 295 294 292 291 289 288 286 284 281 279 276 274 271 268 265 262 259 256 253 250 247 244 242
276 276 277 277 278 278 279 279 280 280 281 281 281 282 282 283 283 284 284 284 285 285 286 286 287 287 288 288 289 290 290 291 292 292 293 294 294 295 295 296 297 297 298 298 299 299 299 299 299 298 298 298 298 297 297 297 297 296 296 296 296 295 294 293 292 290 289 287 286 284 282 279 277 274 272 269 266 263 261 258 255 252 250 247 244 242
276 277 277 277 278 278 279 279 280 280 280 281 281 282 282 282 283 283 284 284 285 285 286 286 287 287 288 289 289 290 290 291 292 293 293 294 294 295 296 296 297 297 298 298 298 298 298 298 298 297 297 297 297 296 296 296 296 295 295 295 295 294 292 291 290 289 287 285 284 282 280 277 275 272 270 267 265 262 260 257 255 253 250 247 245 242
277 278 278 278 278 279 279 279 280 280 281 281 281 282 282 283 283 284 284 284 285 285 286 287 287 288 288 289 289 290 291 292 292 293 293 294 295 295 296 296 297 297 297 298 298 298 297 297 297 296 296 296 296 295 295 295 295 295 294 294 293 292 291 289 288 287 285 283 282 280 278 276 273 271 269 266 264 261 259 257 255 253 250 248 245 243
279 279 279 279 279 280 280 280 280 281 281 282 282 282 283 283 284 284 284 285 285 286 286 287 287 288 289 289 290 290 291 292 292 293 294 294 294 295 295 296 297 297 297 297 297 297 296 296 296 295 295 295 295 294 294 294 294 294 293 292 291 290 289 287 286 285 283 281 280 278 276 274 272 269 267 265 263 260 258 256 255 253 250 248 246 243
280 280 280 280 281 281 281 281 281 282 282 282 283 283 283 284 284 284 285 285 286 286 287 287 288 288 289 289 290 290 291 292 293 293 294 294 294 295 296 296 296 296 296 296 296 296 295 295 295 295 294 294 294 293 293 293 293 292 291 290 289 288 287 285 284 283 281 279 278 276 274 272 270 268 266 263 261 259 257 256 254 252 250 248 245 243
281 281 281 281 281 281 281 282 282 282 282 283 283 283 283 284 284 285 285 285 286 286 287 287 288 288 289 289 290 291 291 292 293 293 294 294 294 295 296 296 296 296 296 296 295 295 294 294 294 294 294 293 293 292 292 292 291 291 290 288 287 286 285 283 282 281 279 277 276 274 272 270 268 266 264 262 260 259 257 255 253 251 249 247 245 243
281 281 281 281 281 281 282 282 282 282 282 283 283 283 283 284 284 284 285 285 286 286 286 287 288 288 289 289 290 291 291 292 293 293 293 294 294 295 295 296 296 295 295 295 294 294 293 293 293 293 293 292 292 291 291 291 290 289 288 287 285 284 283 281 280 278 277 275 274 272 270 268 266 264 263 261 259 257 256 254 252 250 248 246 244 243
282 282 281 281 281 281 281 282 282 282 282 282 283 283 283 284 284 284 285 285 285 286 286 287 288 288 289 289 290 291 291 292 292 293 293 294 294 295 295 295 295 294 294 294 293 293 293 292 292 292 292 291 290 290 290 289 288 287 286 285 283 282 281 279 278 276 275 273 271 269 268 266 264 262 261 259 257 256 254 253 251 250 248 247 245 245
282 281 281 281 281 281 281 281 281 282 282 282 282 283 283 283 284 284 284 285 285 286 286 287 287 288 289 290 290 291 291 292 292 292 293 293 294 294 294 294 294 293 293 292 292 292 292 292 291 291 290 290 289 289 288 287 286 285 284 283 281 280 279 277 276 274 272 270 268 266 265 263 261 260 258 257 256 254 253 252 251 250 249 248 248 247
281 281 281 281 281 281 281 281 281 281 281 282 282 282 283 283 283 284 284 284 285 286 286 287 287 288 289 290 290 291 291 291 291 292 293 293 294 294 294 293 293 292 292 292 292 291 291 291 290 290 289 288 288 288 286 285 284 283 282 281 279 278 277 275 274 272 269 268 265 264 262 260 258 257 255 254 253 252 251 251 250 250 249 249 248 248
281 281 280 280 280 280 280 280 281 281 281 281 281 282 282 282 283 283 284 284 285 285 286 287 287 288 289 290 290 290 290 291 291 292 293 293 293 293 293 292 292 291 291 291 291 291 290 290 289 288 288 287 286 286 284 283 282 281 280 278 277 276 275 273 271 269 267 265 263 261 259 257 255 254 252 251 250 250 249 249 248 248 247 247 246 246
280 280 280 280 279 280 280 280 280 280 280 281 281 281 281 282 282 283 283 284 284 285 286 286 287 288 289 289 290 290 290 290 291 292 292 292 292 292 291 291 291 290 290 290 290 290 289 288 288 287 286 285 284 283 282 281 280 278 277 276 275 274 272 270 268 266 264 262 260 258 256 255 253 251 250 249 248 247 246 246 245 245 245 244 244 244
279 279 279 279 279 279 279 279 279 279 279 280 280 280 281 281 282 282 283 283 284 285 286 286 287 288 288 289 289 289 290 290 291 292 292 292 291 291 290 290 290 290 290 290 289 289 288 287 286 285 284 283 282 281 279 278 277 276 275 274 272 271 269 267 265 263 261 259 258 256 254 253 251 250 249 247 246 246 245 244 243 243 243 242 242 242
278 277 277 277 277 278 278 278 278 278 279 279 279 280 280 281 281 282 282 283 284 285 286 286 287 287 288 288 288 289 289 290 291 291 291 290 290 290 289 289 289 289 289 289 288 288 287 286 284 283 282 281 280 278 277 276 275 273 272 271 269 268 266 264 262 260 259 257 256 254 253 251 250 249 247 246 245 245 244 243 243 242 242 242 242 242
276 276 276 276 276 276 276 277 277 277 277 278 278 279 279 280 280 281 282 283 284 284 285 286 286 287 287 287 288 288 289 290 290 290 290 289 289 289 289 288 288 288 288 287 286 286 285 284 283 281 280 278 277 276 274 273 272 271 270 268 266 265 263 261 259 258 256 255 254 253 251 251 249 248 247 246 245 244 244 243 243 243 242 242 242 242
274 274 274 274 275 275 275 275 276 276 276 277 277 278 279 279 280 281 281 282 283 284 285 285 286 286 286 287 287 288 289 289 289 289 289 288 288 288 288 287 287 287 286 286 285 284 282 281 280 279 278 276 275 274 272 271 270 268 267 265 264 262 261 259 257 255 254 253 252 251 251 250 249 248 247 246 245 245 245 244 244 244 244 244 244 244
273 273 273 273 273 273 274 274 274 275 275 276 276 277 278 278 279 280 281 282 283 284 284 285 285 285 286 286 287 288 288 288 288 288 288 287 287 287 287 286 286 285 285 284 283 282 280 279 278 277 275 274 273 271 270 269 267 266 265 263 262 261 259 257 255 254 253 252 251 250 250 249 248 248 247 246 246 246 245 246 245 245 245 245 245 246
271 271 271 271 272 272 272 273 273 274 274 275 275 276 277 278 279 280 281 282 282 283 283 284 284 284 285 286 287 287 287 287 287 287 286 286 286 286 286 285 284 284 283 282 281 280 278 277 275 274 273 272 271 270 268 267 265 264 263 262 261 260 258 257 255 254 253 251 250 250 249 248 248 247 247 246 246 246 246 246 246 247 247 247 248 248
269 269 270 270 270 271 271 272 272 273 273 274 275 275 276 277 278 279 280 281 282 282 283 283 283 284 284 285 286 286 286 286 286 285 285 285 285 285 284 283 283 282 281 280 278 277 276 275 273 272 271 270 269 268 267 265 264 262 261 261 260 259 258 257 255 254 253 251 250 250 249 248 247 247 247 246 246 246 247 246 247 247 248 248 249 250
268 268 268 269 269 269 270 270 271 271 272 273 274 274 275 277 278 279 280 280 281 281 282 282 283 283 284 284 285 285 285 285 285 284 284 284 284 283 282 282 281 280 278 277 276 274 273 272 271 270 269 268 268 267 266 264 262 261 260 260 259 259 258 257 255 254 253 252 251 250 249 249 248 247 247 247 247 247 247 247 248 248 249 250 251 251
266 266 267 267 267 268 268 269 269 270 271 272 273 274 275 276 277 278 279 279 280 280 281 281 282 282 283 284 284 284 284 283 283 283 283 283 282 281 280 279 278 277 276 274 273 272 271 269 269 268 267 267 266 265 264 263 261 260 260 259 259 258 258 257 255 254 253 252 251 251 250 249 249 248 248 248 248 248 248 249 249 250 251 251 252 253
264 265 265 266 266 267 267 268 268 269 270 271 272 273 274 275 276 277 278 278 279 279 280 280 281 282 282 283 283 282 282 282 282 282 282 281 280 279 278 277 276 274 273 271 270 269 267 266 266 265 265 265 265 264 263 261 261 260 259 259 258 258 257 256 255 254 253 252 251 251 250 250 250 250 250 249 250 250 250 251 251 252 253 254 255 255
263 263 264 264 265 265 266 266 267 268 269 270 271 272 274 275 275 276 277 277 278 278 279 279 280 281 281 281 281 281 281 281 281 280 280 279 278 277 275 274 272 271 270 268 267 265 264 263 263 263 262 262 262 262 261 261 260 259 259 259 259 258 256 255 254 253 253 252 251 251 251 251 251 251 251 251 252 252 253 254 254 255 255 256 257 258
262 262 262 263 263 264 264 265 266 267 268 269 270 271 273 274 274 275 275 276 276 277 277 278 279 279 280 280 280 279 279 279 279 279 278 277 276 274 272 271 270 268 267 266 264 263 261 260 260 260 260 260 260 260 260 259 259 259 258 259 259 258 256 255 254 253 252 252 252 252 252 252 252 252 253 253 254 254 255 256 257 257 258 258 259 259
260 260 261 261 262 262 263 264 265 266 267 268 269 271 272 272 273 273 274 275 275 276 276 277 278 278 278 278 278 278 278 278 277 277 276 274 273 271 269 268 267 265 264 263 261 260 259 258 257 257 257 257 258 258 258 258 258 257 257 257 257 257 255 254 253 252 252 252 252 252 253 253 253 254 254 255 256 256 257 257 258 259 259 260 260 261
259 259 259 259 260 261 261 262 263 264 266 267 268 270 270 271 271 272 273 273 274 274 275 276 276 276 277 277 276 276 276 276 275 274 273 271 270 268 266 265 264 263 261 260 258 257 256 255 255 255 255 256 256 256 256 256 256 256 255 255 255 255 255 254 253 253 253 253 253 253 254 254 255 255 256 256 257 257 258 259 259 260 260 261 262 262
257 257 257 258 258 259 260 261 262 263 264 266 267 268 269 269 270 270 271 272 272 273 273 274 275 275 275 275 275 275 274 273 273 271 270 268 267 265 263 262 261 260 259 257 255 254 254 253 253 253 253 254 254 254 254 254 254 254 253 253 253 253 254 254 253 253 253 253 254 254 254 255 255 256 256 257 258 258 259 259 260 261 261 262 263 263
255 255 256 256 257 258 258 259 260 262 264 265 266 266 267 268 268 269 269 270 270 271 272 272 273 273 273 273 273 272 272 271 270 268 267 265 264 262 260 259 258 257 256 255 254 253 252 251 251 251 252 252 252 252 252 252 251 251 251 251 251 252 252 252 252 253 253 253 254 254 254 255 256 256 257 257 258 259 259 260 261 261 262 263 263 264
253 253 254 254 255 256 257 258 259 261 262 263 264 265 265 266 267 267 267 268 268 269 270 271 271 271 271 271 271 270 269 268 266 265 263 262 261 259 258 257 255 254 253 252 252 251 251 250 250 250 250 250 250 250 250 250 250 249 250 249 250 250 250 251 251 251 252 253 253 254 254 255 256 257 257 258 259 260 261 261 262 263 264 264 265 266
251 252 252 253 253 254 255 257 258 260 261 262 262 263 263 264 264 265 265 266 266 267 268 269 269 269 269 269 268 267 266 264 263 262 260 259 258 257 255 254 253 252 251 250 250 249 249 249 249 248 248 248 248 248 248 248 248 248 248 248 248 249 249 250 250 251 251 252 253 254 255 256 257 258 259 260 261 262 263 263 264 265 266 266 267 267
249 250 251 251 252 253 254 255 257 258 259 259 260 261 261 262 262 263 263 264 265 265 266 267 267 267 267 266 265 264 262 261 260 259 257 256 255 254 253 252 251 250 249 248 248 248 248 247 247 247 247 246 246 246 247 247 247 247 247 248 248 248 249 249 250 251 252 253 254 255 256 257 258 260 261 262 263 264 265 266 266 267 267 268 269 269
248 248 249 249 250 251 253 254 255 256 257 257 258 259 259 260 260 260 261 262 263 264 264 265 265 265 264 263 262 261 259 258 257 256 255 254 253 252 251 250 248 248 247 246 246 246 246 246 246 246 246 246 246 246 246 246 246 247 248 248 248 249 250 251 252 253 254 255 256 257 259 260 261 262 263 265 266 266 267 268 268 269 269 270 270 271
246 246 247 248 249 250 251 252 253 254 254 255 256 256 257 257 258 258 259 260 261 262 263 263 263 262 261 260 259 258 257 256 254 254 253 252 251 250 249 248 247 245 245 244 244 244 243 244 244 244 245 246 246 246 246 247 247 248 249 249 250 251 252 253 255 256 257 258 259 260 261 262 263 264 265 266 267 268 268 269 269 270 271 271 272 272
244 244 245 246 247 248 250 250 251 251 252 253 253 254 254 255 256 256 257 258 259 260 261 260 260 259 258 257 256 255 254 253 253 252 251 250 249 248 247 246 245 244 243 243 242 242 242 242 242 243 244 245 246 247 248 248 249 250 251 252 253 254 255 256 257 258 259 260 261 262 263 264 265 265 266 267 268 269 269 270 270 271 272 272 273 273
Height
10558 10556 10556 10555 10555 10553 10551 10550 10550 10550 10547 10545 10545 10545 10545 10545 10545 10544 10543 10543 10542 10541 10540 10538 10537 10536 10535 10534 10532 10531 10530 10528 10527 10526 10525 10523 10521 10519 10517 10515 10513 10511 10509 10507 10505 10502 10500 10498 10495 10493 10490 10488 10486 10483 10481 10479 10476 10475 10473 10470 10468 10466 10463 10460 10458 10455 10453 10450 10448 10445 10443 10440 10438 10436 10433 10432 10431 10430 10429 10428 10428 10426 10426 10426 10426 10426
10555 10553 10552 10551 10550 10550 10547 10545 10545 10545 10545 10542 10541 10540 10541 10541 10540 10539 10538 10538 10536 10535 10535 10534 10533 10532 10531 10530 10528 10527 10525 10523 10521 10520 10519 10517 10515 10513 10511 10509 10508 10506 10503 10501 10499 10496 10494 10491 10490 10487 10485 10482 10480 10478 10475 10473 10471 10469 10466 10465 10462 10460 10457 10454 10451 10449 10447 10445 10443 10440 10438 10435 10433 10431 10429 10428 10426 10426 10425 10424 10423 10423 10422 10422 10422 10423
10552 10551 10548 10547 10546 10546 10544 10541 10540 10541 10540 10539 10537 10536 10536 10535 10535 10533 10532 10532 10531 10530 10530 10530 10529 10528 10527 10525 10524 10523 10520 10518 10516 10515 10513 10511 10509 10507 10505 10503 10501 10500 10497 10495 10493 10491 10488 10486 10483 10481 10478 10476 10474 10472 10470 10468 10465 10463 10461 10458 10456 10453 10451 10448 10445 10443 10441 10439 10437 10435 10433 10431 10428 10426 10425 10423 10422 10421 10421 10420 10420 10419 10419 10419 10419 10420
10548 10548 10544 10542 10541 10541 10538 10537 10536 10536 10535 10534 10533 10531 10531 10530 10529 10528 10528 10528 10528 10526 10526 10525 10525 10523 10522 10520 10519 10517 10515 10513 10510 10508 10506 10505 10503 10502 10500 10498 10496 10494 10491 10489 10487 10485 10482 10480 10478 10475 10473 10470 10468 10466 10464 10462 10460 10457 10455 10453 10450 10448 10445 10442 10440 10437 10435 10434 10432 10430 10428 10426 10424 10422 10421 10420 10418 10418 10417 10416 10416 10415 10415 10415 10416 10416
10543 10543 10540 10538 10536 10534 10532 10531 10531 10531 10529 10528 10528 10527 10526 10525 10525 10524 10524 10524 10523 10523 10521 10520 10519 10518 10516 10515 10513 10511 10509 10506 10505 10503 10501 10500 10498 10496 10495 10492 10490 10488 10486 10483 10481 10479 10476 10474 10471 10469 10466 10465 10462 10460 10458 10456 10453 10451 10449 10447 10445 10442 10439 10436 10434 10432 10430 10428 10426 10425 10423 10421 10419 10418 10416 10415 10415 10414 10413 10413 10412 10412 10412 10412 10412 10413
10535 10536 10536 10534 10531 10529 10527 10526 10526 10526 10525 10524 10523 10522 10522 10521 10521 10520 10519 10518 10518 10516 10515 10514 10513 10511 10510 10508 10506 10505 10503 10501 10499 10497 10495 10493 10492 10490 10488 10486 10485 10482 10480 10477 10475 10473 10470 10468 10465 10463 10461 10458 10456 10454 10452 10450 10447 10445 10443 10441 10439 10436 10433 10431 10428 10426 10425 10423 10421 10420 10418 10416 10415 10413 10412 10411 10410 10410 10410 10409 10409 10408 10408 10408 10409 10410
10529 10530 10530 10530 10527 10525 10523 10522 10522 10521 10521 10520 10518 10517 10516 10516 10515 10514 10513 10512 10511 10510 10509 10508 10506 10505 10504 10503 10501 10499 10496 10494 10492 10490 10489 10487 10486 10485 10483 10481 10478 10476 10473 10471 10469 10466 10464 10461 10460 10457 10455 10452 10450 10448 10446 10443 10441 10439 10437 10435 10433 10430 10428 10425 10423 10421 10420 10418 10416 10415 10413 10411 10410 10409 10408 10407 10406 10406 10406 10406 10405 10405 10405 10405 10406 10406
10523 10523 10523 10523 10521 10520 10518 10516 10516 10516 10515 10515 10513 10511 10509 10508 10508 10506 10506 10505 10505 10504 10503 10501 10500 10498 10496 10496 10495 10493 10490 10488 10485 10484 10482 10481 10480 10478 10476 10474 10471 10469 10467 10465 10463 10460 10458 10456 10453 10451 10449 10446 10444 10441 10440 10437 10435 10433 10431 10429 10426 10424 10422 10420 10418 10416 10415 10413 10411 10410 10408 10407 10406 10405 10404 10403 10403 10403 10402 10402 10402 10402 10402 10402 10403 10403
10518 10517 10516 10515 10514 10513 10512 10510 10508 10508 10508 10508 10506 10505 10502 10501 10500 10499 10498 10498 10498 10497 10496 10495 10493 10491 10490 10488 10488 10486 10484 10481 10479 10477 10475 10474 10473 10471 10469 10467 10465 10462 10460 10458 10456 10454 10451 10450 10447 10445 10443 10440 10438 10435 10433 10431 10428 10426 10425 10423 10421 10418 10416 10415 10413 10411 10410 10408 10406 10405 10404 10403 10401 10401 10400 10400 10399 10399 10399 10399 10399 10399 10399 10399 10400 10400
10511 10510 10510 10508 10506 10505 10505 10504 10501 10499 10499 10500 10499 10498 10495 10495 10494 10493 10491 10490 10489 10489 10489 10488 10486 10485 10483 10481 10480 10479 10477 10475 10473 10470 10468 10467 10466 10465 10463 10460 10458 10456 10453 10451 10450 10448 10446 10443 10441 10439 10437 10435 10432 10429 10426 10425 10422 10421 10419 10417 10415 10413 10411 10409 10408 10406 10405 10403 10402 10401 10400 10398 10398 10397 10396 10396 10395 10395 10395 10395 10395 10396 10396 10396 10396 10397
10503 10502 10502 10501 10499 10497 10496 10496 10495 10493 10492 10491 10491 10490 10488 10487 10488 10488 10487 10484 10481 10480 10480 10480 10479 10478 10476 10475 10474 10471 10469 10467 10465 10463 10462 10461 10460 10458 10456 10454 10451 10449 10446 10445 10443 10441 10440 10438 10436 10433 10431 10428 10426 10423 10420 10418 10416 10415 10413 10411 10410 10408 10406 10404 10403 10401 10400 10398 10397 10396 10395 10394 10393 10393 10392 10392 10391 10391 10391 10392 10392 10392 10393 10393 10394 10395
10495 10494 10494 10493 10491 10490 10488 10488 10486 10486 10485 10485 10484 10482 10480 10479 10479 10480 10480 10478 10475 10473 10472 10472 10471 10470 10469 10468 10467 10465 10462 10460 10458 10456 10455 10455 10453 10451 10450 10448 10445 10442 10440 10438 10437 10435 10434 10432 10430 10427 10425 10422 10420 10416 10414 10412 10410 10409 10408 10406 10404 10402 10401 10399 10398 10396 10395 10394 10393 10392 10391 10390 10390 10389 10388 10388 10388 10388 10388 10388 10389 10389 10390 10390 10391 10391
10486 10486 10486 10485 10484 10482 10480 10480 10479 10478 10477 10476 10476 10475 10473 10471 10471 10471 10471 10470 10468 10466 10465 10465 10464 10462 10460 10460 10459 10458 10455 10453 10451 10450 10449 10448 10447 10445 10443 10441 10438 10435 10433 10432 10431 10430 10428 10426 10423 10421 10418 10416 10413 10410 10408 10406 10405 10403 10401 10400 10398 10397 10396 10395 10393 10391 10390 10390 10388 10388 10386 10386 10385 10385 10385 10385 10385 10385 10385 10385 10386 10386 10386 10387 10388 10389
10478 10478 10478 10477 10476 10474 10472 10471 10471 10470 10469 10468 10467 10466 10466 10465 10463 10463 10462 10461 10460 10458 10457 10457 10456 10455 10453 10451 10451 10450 10448 10446 10445 10443 10442 10441 10440 10439 10437 10435 10431 10428 10427 10426 10425 10423 10421 10420 10417 10415 10412 10410 10407 10405 10403 10401 10399 10398 10396 10395 10393 10392 10391 10390 10388 10387 10386 10385 10384 10383 10383 10382 10381 10381 10381 10381 10381 10381 10381 10382 10383 10383 10384 10385 10385 10386
10468 10468 10469 10468 10466 10464 10463 10462 10462 10461 10460 10458 10458 10458 10458 10457 10455 10454 10453 10453 10452 10450 10450 10449 10448 10446 10445 10444 10443 10443 10441 10440 10438 10436 10435 10435 10433 10431 10430 10427 10425 10422 10420 10420 10418 10416 10415 10413 10411 10408 10406 10403 10401 10399 10397 10395 10393 10392 10391 10389 10388 10387 10386 10385 10383 10383 10381 10381 10380 10380 10379 10378 10378 10378 10378 10378 10378 10378 10378 10379 10380 10380 10381 10381 10382 10383
10458 10458 10459 10458 10456 10454 10453 10452 10452 10451 10451 10450 10449 10450 10450 10448 10447 10446 10445 10445 10444 10443 10441 10441 10440 10439 10438 10436 10435 10435 10435 10433 10431 10430 10428 10428 10426 10424 10423 10420 10418 10415 10414 10413 10411 10410 10408 10406 10404 10402 10400 10398 10395 10393 10391 10390 10388 10386 10385 10384 10383 10382 10381 10380 10379 10378 10377 10376 10376 10375 10375 10375 10374 10374 10374 10374 10375 10375 10375 10376 10376 10377 10378 10378 10379 10380
10448 10449 10449 10448 10446 10445 10443 10443 10443 10443 10442 10441 10441 10440 10440 10440 10439 10438 10437 10436 10435 10435 10433 10433 10433 10432 10431 10429 10428 10427 10426 10426 10425 10423 10421 10421 10419 10417 10416 10414 10411 10409 10408 10406 10405 10403 10402 10400 10398 10396 10393 10391 10390 10388 10386 10385 10383 10381 10380 10379 10378 10377 10376 10375 10375 10374 10373 10372 10372 10371 10371 10371 10371 10371 10371 10371 10371 10371 10372 10373 10373 10374 10375 10375 10376 10377
10438 10439 10439 10439 10438 10436 10435 10434 10434 10433 10432 10432 10431 10431 10431 10431 10431 10430 10430 10428 10427 10426 10425 10425 10425 10424 10423 10422 10420 10419 10420 10420 10419 10417 10415 10414 10412 10411 10410 10408 10406 10403 10402 10400 10399 10397 10396 10393 10391 10390 10388 10386 10384 10383 10381 10380 10378 10376 10375 10375 10373 10373 10372 10371 10370 10370 10369 10368 10368 10368 10367 10367 10367 10367 10367 10368 10368 10368 10369 10370 10370 10371 10371 10373 10373 10375
10428 10428 10429 10429 10428 10427 10426 10425 10425 10423 10423 10423 10423 10423 10423 10423 10422 10421 10421 10420 10419 10418 10418 10417 10416 10416 10415 10414 10413 10412 10413 10413 10412 10410 10408 10407 10405 10405 10403 10402 10400 10398 10396 10394 10393 10391 10390 10387 10385 10383 10381 10380 10379 10377 10376 10375 10373 10372 10371 10370 10369 10368 10367 10366 10366 10365 10365 10365 10364 10364 10364 10364 10364 10364 10364 10365 10365 10365 10366 10366 10367 10368 10369 10370 10371 10371
10418 10418 10418 10418 10418 10418 10417 10415 10415 10414 10414 10414 10413 10414 10415 10414 10413 10413 10412 10411 10410 10410 10410 10410 10409 10408 10408 10406 10406 10406 10406 10406 10405 10403 10401 10400 10399 10398 10397 10396 10394 10391 10390 10388 10387 10385 10383 10381 10379 10378 10376 10375 10373 10372 10371 10370 10368 10367 10366 10365 10365 10364 10363 10363 10362 10361 10361 10361 10360 10360 10360 10360 10360 10360 10361 10361 10361 10362 10363 10363 10365 10365 10366 10367 10368 10369
10408 10408 10408 10408 10409 10409 10408 10406 10405 10405 10405 10405 10405 10405 10405 10405 10405 10405 10403 10403 10403 10403 10402 10402 10401 10401 10400 10400 10399 10399 10400 10400 10398 10396 10395 10393 10392 10391 10391 10390 10388 10385 10383 10382 10381 10380 10378 10375 10373 10372 10371 10370 10368 10366 10365 10365 10363 10363 10362 10361 10360 10360 10359 10358 10358 10358 10357 10357 10357 10356 10356 10357 10357 10357 10358 10358 10359 10360 10360 10361 10361 10363 10363 10365 10365 10366
10399 10399 10399 10400 10400 10400 10399 10398 10397 10396 10396 10396 10397 10397 10397 10397 10397 10396 10395 10395 10395 10395 10395 10395 10394 10394 10394 10393 10392 10392 10393 10393 10392 10390 10388 10386 10385 10385 10385 10384 10382 10380 10377 10376 10375 10373 10371 10370 10368 10366 10365 10364 10363 10361 10361 10360 10359 10358 10358 10357 10356 10356 10355 10355 10354 10354 10354 10353 10353 10353 10353 10353 10354 10354 10355 10355 10356 10356 10357 10358 10359 10360 10361 10361 10363 10364
10390 10390 10390 10391 10391 10391 10390 10390 10389 10388 10388 10388 10389 10389 10389 10389 10389 10389 10388 10388 10388 10388 10387 10387 10388 10388 10387 10386 10386 10386 10386 10386 10386 10384 10382 10380 10378 10378 10378 10378 10376 10373 10371 10370 10369 10368 10366 10364 10363 10361 10360 10359 10358 10356 10356 10355 10355 10354 10353 10353 10352 10351 10351 10351 10350 10350 10350 10350 10350 10350 10350 10350 10351 10351 10352 10352 10353 10354 10355 10355 10356 10357 10358 10359 10360 10361
10381 10381 10382 10382 10383 10383 10382 10382 10381 10381 10381 10381 10381 10381 10381 10382 10382 10382 10381 10381 10381 10381 10380 10381 10381 10381 10380 10380 10380 10380 10380 10380 10380 10378 10376 10374 10373 10372 10372 10371 10370 10367 10365 10365 10363 10362 10360 10358 10358 10356 10355 10354 10353 10352 10351 10351 10350 10350 10349 10349 10348 10348 10347 10347 10346 10346 10346 10346 10346 10346 10347 10347 10348 10348 10349 10350 10350 10351 10352 10353 10353 10355 10356 10356 10358 10358
10372 10373 10373 10374 10375 10375 10375 10374 10374 10373 10373 10373 10373 10374 10374 10375 10375 10375 10375 10375 10374 10374 10374 10374 10374 10373 10373 10373 10374 10373 10373 10374 10373 10371 10370 10368 10367 10366 10366 10366 10364 10361 10359 10358 10358 10356 10355 10353 10352 10351 10350 10349 10348 10348 10347 10346 10346 10346 10345 10345 10345 10344 10343 10343 10343 10343 10343 10343 10343 10343 10344 10345 10345 10345 10346 10347 10348 10348 10349 10350 10351 10352 10353 10354 10355 10356
10364 10365 10365 10366 10366 10366 10366 10366 10366 10366 10366 10366 10366 10366 10367 10367 10368 10368 10367 10367 10367 10367 10368 10368 10367 10366 10367 10367 10367 10367 10367 10367 10366 10366 10364 10363 10361 10360 10360 10360 10358 10356 10354 10353 10352 10351 10350 10348 10347 10346 10346 10345 10344 10343 10343 10343 10342 10341 10341 10341 10340 10340 10340 10340 10340 10340 10340 10340 10340 10341 10341 10341 10342 10343 10343 10344 10345 10346 10346 10348 10349 10350 10351 10352 10353 10354
10356 10356 10357 10358 10358 10358 10359 10359 10359 10359 10359 10359 10359 10360 10360 10360 10360 10360 10360 10360 10360 10361 10361 10361 10361 10360 10361 10361 10361 10361 10361 10360 10360 10360 10359 10358 10356 10355 10353 10353 10352 10350 10348 10348 10347 10346 10345 10343 10343 10341 10341 10340 10340 10340 10339 10338 10338 10338 10337 10337 10336 10336 10336 10336 10336 10336 10336 10337 10337 10338 10338 10338 10339 10340 10341 10341 10342 10343 10344 10345 10346 10347 10348 10350 10351 10351
10347 10348 10349 10350 10350 10351 10351 10351 10351 10351 10352 10352 10352 10353 10353 10353 10353 10353 10353 10353 10355 10355 10355 10355 10355 10355 10355 10355 10355 10355 10355 10354 10353 10353 10353 10352 10350 10348 10348 10347 10346 10345 10343 10342 10341 10341 10340 10339 10338 10337 10336 10336 10336 10335 10335 10335 10334 10334 10333 10333 10333 10333 10333 10333 10333 10333 10333 10334 10334 10335 10335 10336 10336 10337 10338 10339 10340 10341 10341 10343 10343 10345 10346 10347 10348 10349
10339 10340 10341 10342 10343 10343 10344 10344 10345 10345 10345 10345 10346 10346 10346 10346 10346 10346 10346 10348 10348 10349 10348 10348 10349 10349 10349 10348 10348 10348 10348 10348 10348 10348 10348 10346 10344 10343 10343 10341 10340 10339 10338 10337 10336 10335 10335 10334 10333 10333 10332 10332 10331 10331 10331 10331 10330 10330 10330 10330 10330 10330 10329 10330 10330 10330 10330 10331 10331 10332 10332 10333 10334 10335 10335 10336 10337 10338 10339 10340 10341 10342 10343 10344 10345 10346
10331 10332 10333 10335 10335 10336 10336 10337 10337 10338 10338 10338 10339 10339 10340 10340 10340 10340 10341 10341 10343 10343 10343 10343 10343 10343 10343 10343 10342 10341 10341 10342 10343 10343 10342 10340 10338 10337 10337 10336 10335 10334 10333 10332 10331 10330 10330 10330 10329 10329 10328 10328 10328 10328 10327 10327 10326 10326 10326 10326 10326 10326 10326 10326 10326 10327 10328 10328 10328 10329 10330 10330 10331 10332 10333 10333 10334 10335 10336 10337 10338 10339 10340 10341 10341 10343
10323 10325 10326 10326 10328 10328 10330 10330 10330 10330 10331 10331 10332 10333 10333 10333 10334 10335 10335 10336 10336 10336 10337 10337 10337 10337 10337 10337 10336 10335 10335 10336 10337 10338 10336 10335 10332 10331 10331 10330 10329 10328 10328 10328 10326 10326 10325 10325 10325 10325 10325 10325 10324 10324 10323 10323 10323 10323 10323 10323 10323 10323 10323 10323 10323 10324 10325 10325 10326 10326 10327 10328 10328 10329 10330 10331 10331 10332 10333 10334 10335 10336 10337 10338 10339 10340
10315 10317 10318 10319 10320 10321 10322 10323 10323 10323 10324 10325 10325 10326 10326 10327 10328 10328 10330 10330 10331 10331 10331 10331 10331 10331 10331 10331 10330 10330 10330 10330 10331 10331 10331 10329 10327 10326 10326 10325 10324 10323 10323 10323 10322 10321 10321 10320 10320 10320 10321 10320 10320 10320 10320 10320 10320 10320 10320 10320 10320 10320 10320 10320 10321 10321 10321 10322 10323 10323 10324 10325 10326 10326 10327 10328 10329 10330 10330 10331 10332 10333 10334 10335 10336 10336
10308 10309 10310 10312 10313 10315 10315 10316 10316 10316 10317 10318 10319 10320 10320 10321 10321 10323 10324 10325 10325 10326 10326 10325 10325 10325 10325 10325 10325 10325 10325 10325 10325 10325 10325 10323 10321 10321 10320 10320 10320 10319 10318 10318 10318 10318 10317 10316 10316 10316 10316 10316 10316 10316 10316 10316 10316 10316 10316 10316 10316 10316 10317 10317 10318 10318 10319 10320 10320 10321 10321 10322 10323 10324 10325 10325 10326 10327 10328 10329 10330 10330 10331 10332 10333 10334
10300 10301 10303 10305 10306 10307 10308 10309 10309 10310 10311 10311 10313 10313 10314 10315 10316 10317 10318 10320 10320 10320 10320 10320 10320 10319 10319 10319 10320 10320 10320 10320 10320 10320 10319 10318 10316 10316 10315 10315 10315 10314 10314 10313 10313 10313 10313 10313 10313 10313 10313 10313 10313 10313 10313 10313 10313 10313 10313 10313 10313 10313 10314 10315 10315 10315 10316 10316 10317 10318 10318 10320 10320 10321 10321 10323 10323 10325 10325 10326 10327 10328 10328 10330 10330 10331
10293 10295 10296 10298 10299 10300 10301 10301 10302 10303 10304 10305 10306 10307 10308 10309 10310 10311 10313 10314 10314 10315 10314 10314 10314 10314 10314 10314 10314 10314 10314 10314 10314 10314 10313 10313 10311 10311 10310 10310 10310 10310 10310 10310 10309 10309 10309 10309 10309 10309 10309 10309 10309 10309 10310 10310 10310 10310 10310 10310 10310 10311 10311 10312 10312 10313 10313 10314 10315 10315 10316 10316 10318 10318 10319 10320 10321 10321 10323 10323 10324 10325 10326 10326 10328 10328
10286 10287 10289 10291 10292 10293 10294 10295 10296 10296 10298 10299 10300 10301 10302 10303 10305 10306 10308 10308 10308 10308 10308 10308 10308 10309 10309 10309 10309 10309 10308 10308 10308 10309 10308 10308 10307 10306 10306 10305 10305 10305 10305 10305 10305 10305 10305 10305 10305 10305 10305 10305 10305 10305 10306 10306 10306 10306 10306 10307 10307 10308 10308 10309 10310 10310 10311 10311 10312 10313 10313 10314 10315 10316 10316 10317 10318 10319 10320 10321 10321 10322 10323 10324 10325 10326
10279 10280 10282 10284 10285 10286 10287 10288 10289 10290 10291 10293 10293 10295 10296 10298 10300 10301 10302 10302 10303 10303 10303 10303 10303 10303 10304 10305 10305 10304 10303 10303 10303 10303 10303 10303 10302 10302 10301 10301 10301 10301 10301 10301 10301 10301 10301 10301 10301 10301 10301 10301 10302 10302 10302 10303 10303 10303 10303 10304 10305 10305 10306 10306 10307 10308 10308 10309 10310 10310 10311 10312 10313 10313 10314 10315 10316 10316 10317 10318 10319 10320 10320 10321 10322 10323
10272 10273 10275 10277 10278 10280 10281 10282 10283 10284 10285 10286 10288 10289 10291 10293 10295 10296 10296 10296 10296 10297 10297 10297 10298 10298 10299 10299 10299 10299 10298 10298 10298 10298 10298 10298 10298 10298 10297 10296 10297 10297 10298 10298 10298 10297 10297 10297 10297 10297 10298 10298 10298 10299 10299 10300 10300 10300 10301 10301 10302 10303 10303 10304 10305 10305 10306 10306 10308 10308 10309 10310 10310 10311 10312 10313 10313 10314 10315 10315 10316 10317 10318 10319 10320 10320
10265 10267 10268 10270 10272 10273 10275 10275 10276 10278 10280 10281 10282 10284 10286 10288 10289 10290 10290 10291 10291 10291 10291 10291 10292 10293 10293 10294 10294 10294 10293 10293 10293 10293 10293 10293 10293 10293 10293 10293 10293 10293 10293 10294 10294 10294 10294 10293 10294 10294 10294 10295 10295 10295 10296 10296 10296 10297 10298 10299 10300 10300 10301 10301 10302 10303 10303 10304 10305 10306 10306 10307 10308 10309 10310 10310 10311 10311 10312 10313 10314 10315 10315 10316 10317 10318
10258 10260 10262 10264 10266 10267 10268 10270 10271 10272 10273 10275 10276 10279 10281 10283 10283 10284 10285 10285 10286 10286 10286 10286 10287 10288 10288 10289 10289 10289 10288 10288 10288 10288 10289 10289 10289 10289 10289 10289 10289 10289 10290 10290 10290 10290 10290 10290 10290 10290 10291 10291 10291 10292 10293 10293 10294 10295 10295 10296 10296 10297 10298 10299 10300 10300 10301 10301 10302 10303 10304 10305 10305 10306 10307 10308 10308 10309 10310 10310 10311 10312 10313 10313 10314 10315
10252 10254 10256 10258 10260 10261 10262 10263 10265 10266 10268 10270 10271 10274 10276 10277 10278 10278 10279 10280 10280 10280 10281 10281 10282 10283 10283 10284 10284 10284 10284 10284 10284 10284 10285 10285 10285 10285 10285 10285 10285 10285 10286 10286 10286 10286 10286 10286 10286 10287 10287 10288 10288 10289 10290 10290 10291 10291 10293 10293 10294 10295 10296 10296 10297 10298 10298 10299 10300 10300 10301 10302 10303 10303 10304 10305 10305 10306 10306 10308 10308 10309 10310 10310 10311 10311
10246 10248 10250 10251 10253 10255 10256 10258 10260 10261 10263 10265 10267 10269 10271 10272 10273 10273 10274 10274 10275 10275 10275 10276 10277 10278 10278 10279 10279 10279 10279 10280 10280 10280 10280 10281 10281 10281 10281 10281 10281 10281 10282 10282 10282 10283 10283 10283 10283 10283 10284 10285 10285 10286 10286 10287 10288 10289 10290 10290 10291 10292 10293 10293 10294 10295 10295 10296 10297 10298 10298 10299 10300 10300 10301 10301 10302 10303 10303 10305 10305 10306 10306 10307 10308 10308
10240 10241 10243 10245 10247 10248 10251 10253 10255 10256 10257 10260 10262 10264 10265 10266 10267 10268 10268 10269 10269 10270 10270 10271 10272 10273 10273 10274 10274 10275 10275 10275 10275 10276 10276 10276 10277 10277 10277 10278 10278 10278 10278 10278 10279 10279 10280 10280 10280 10280 10281 10281 10282 10283 10283 10284 10285 10286 10286 10288 10288 10289 10290 10290 10291 10292 10293 10293 10294 10295 10295 10296 10296 10297 10298 10298 10299 10300 10301 10301 10302 10303 10303 10304 10305 10305
10233 10235 10237 10239 10241 10243 10245 10247 10249 10250 10253 10255 10257 10259 10260 10261 10262 10263 10263 10263 10264 10265 10265 10266 10267 10268 10269 10269 10270 10270 10270 10271 10271 10272 10272 10273 10273 10273 10273 10274 10274 10274 10275 10275 10275 10275 10276 10276 10276 10277 10278 10278 10279 10280 10280 10281 10282 10283 10284 10285 10286 10286 10287 10288 10288 10290 10290 10291 10291 10292 10293 10293 10294 10294 10295 10295 10296 10297 10298 10298 10299 10300 10300 10301 10301 10301
10227 10229 10231 10233 10236 10238 10240 10241 10243 10246 10248 10250 10252 10254 10255 10256 10257 10258 10258 10258 10259 10260 10260 10261 10263 10263 10264 10265 10265 10266 10266 10266 10267 10268 10268 10268 10269 10270 10270 10270 10270 10271 10271 10271 10271 10272 10273 10273 10273 10274 10275 10276 10276 10276 10278 10278 10279 10280 10281 10282 10283 10283 10284 10285 10286 10286 10287 10288 10288 10289 10290 10290 10291 10291 10291 10292 10293 10294 10295 10295 10296 10296 10297 10297 10298 10298
10221 10223 10225 10228 10230 10233 10235 10236 10239 10241 10244 10246 10247 10248 10250 10251 10251 10253 10253 10253 10254 10255 10256 10257 10258 10259 10260 10260 10261 10262 10262 10263 10263 10263 10264 10265 10265 10265 10266 10266 10266 10267 10267 10268 10268 10269 10270 10270 10270 10271 10272 10273 10273 10274 10275 10276 10276 10277 10278 10279 10280 10280 10281 10282 10283 10283 10284 10285 10285 10286 10287 10288 10288 10288 10288 10289 10290 10290 10291 10292 10292 10293 10293 10294 10295 10295
10215 10218 10220 10223 10225 10228 10230 10232 10235 10237 10239 10241 10242 10243 10245 10246 10246 10247 10248 10249 10250 10250 10251 10253 10254 10255 10256 10256 10257 10258 10258 10258 10259 10260 10260 10261 10261 10261 10262 10263 10263 10263 10264 10265 10265 10266 10266 10267 10268 10268 10269 10270 10270 10271 10272 10273 10274 10275 10275 10276 10277 10278 10278 10279 10280 10281 10281 10282 10283 10283 10284 10285 10285 10285 10285 10286 10286 10287 10288 10288 10289 10289 10290 10290 10290 10291
10210 10212 10215 10218 10220 10223 10225 10228 10230 10233 10235 10236 10237 10238 10240 10241 10241 10242 10243 10244 10245 10246 10247 10248 10250 10251 10251 10252 10253 10254 10254 10255 10255 10256 10256 10257 10258 10258 10258 10259 10260 10260 10261 10261 10262 10263 10263 10264 10265 10265 10266 10266 10268 10268 10269 10270 10271 10271 10272 10273 10274 10275 10275 10276 10277 10278 10278 10279 10280 10280 10281 10281 10281 10281 10282 10283 10283 10283 10284 10285 10285 10285 10286 10286 10286 10286
10205 10208 10210 10213 10215 10218 10220 10223 10226 10228 10230 10231 10232 10233 10235 10236 10236 10238 10238 10240 10241 10242 10243 10245 10246 10246 10248 10248 10249 10250 10250 10251 10251 10252 10253 10253 10254 10255 10255 10256 10256 10257 10258 10258 10259 10260 10260 10261 10261 10262 10263 10264 10265 10265 10266 10267 10268 10269 10270 10270 10271 10271 10273 10273 10274 10275 10276 10276 10276 10277 10278 10278 10278 10278 10279 10280 10280 10280 10280 10280 10281 10281 10282 10282 10283 10283
10200 10203 10206 10208 10211 10213 10216 10219 10221 10223 10225 10226 10227 10228 10230 10231 10231 10233 10234 10235 10236 10238 10240 10241 10242 10243 10243 10245 10245 10246 10246 10247 10248 10248 10249 10250 10250 10251 10251 10252 10253 10253 10254 10255 10256 10256 10257 10258 10258 10259 10260 10261 10261 10263 10263 10264 10265 10266 10266 10267 10268 10269 10270 10270 10271 10271 10272 10273 10273 10274 10274 10275 10275 10275 10276 10276 10276 10276 10276 10276 10277 10277 10278 10278 10278 10278
10195 10198 10201 10204 10206 10209 10212 10215 10216 10218 10220 10221 10223 10223 10225 10226 10227 10228 10230 10231 10233 10234 10236 10237 10238 10239 10240 10240 10241 10242 10243 10243 10245 10245 10246 10246 10247 10248 10248 10249 10250 10250 10251 10251 10253 10253 10254 10255 10256 10256 10257 10258 10259 10260 10260 10261 10262 10263 10263 10264 10265 10266 10266 10267 10268 10268 10269 10270 10270 10270 10271 10271 10271 10271 10272 10272 10272 10273 10273 10273 10273 10273 10274 10274 10275 10274